Location: Unspecified
(41.1637°N, 24.2901°E)
Time: 15:37:06
(UTC+01:00)

ISS - Pass Details

Date: 07 March 2026
Orbit: 417 x 426 km, 51.6° (Epoch: 16 March)

Event Time Altitude Azimuth Distance (km) Brightness Sun altitude
Exits shadow 04:34:40 12° 204° (SSW) 1,396 -1.4 -14.6°
Drops below altitude 10° 04:35:07 10° 197° (SSW) 1,486 -1.2 -14.5°
Sets 04:37:57 0° 170° (S) 2,342 0.1 -14.0°
